"Period start","avg(HW err(1)/warn(2) (#))","avg(Visibility (m))","avg(Weather code (#))","avg(Precip intensity (mm/h))","min(HW err(1)/warn(2) (#))","max(HW err(1)/warn(2) (#))","std(HW err(1)/warn(2) (#))","med(HW err(1)/warn(2) (#))","min(Visibility (m))","max(Visibility (m))","std(Visibility (m))","med(Visibility (m))","min(Weather code (#))","max(Weather code (#))","std(Weather code (#))","med(Weather code (#))","min(Precip intensity (mm/h))","max(Precip intensity (mm/h))","std(Precip intensity (mm/h))","med(Precip intensity (mm/h))"
2017-07-11 00:00:00,1,37460,0,0.00,0,2,1,0,23118,50000,9959,38057,0,0,0,0,0.00,0.00,0.00,0.00
2017-07-11 00:10:00,0,42480,0,0.00,0,0,0,0,19264,50000,10102,48599,0,0,0,0,0.00,0.00,0.00,0.00
2017-07-11 00:20:00,0,47722,0,0.00,0,0,0,0,41184,50000,3326,50000,0,0,0,0,0.00,0.00,0.00,0.00
2017-07-11 00:30:00,0,47422,0,0.00,0,2,1,0,41193,50000,2761,47814,0,0,0,0,0.00,0.00,0.00,0.00
2017-07-11 00:40:00,0,49130,0,0.00,0,0,0,0,45440,50000,1743,50000,0,0,0,0,0.00,0.00,0.00,0.00
2017-07-11 00:50:00,0,44390,0,0.00,0,0,0,0,35702,50000,4043,44231,0,0,0,0,0.00,0.00,0.00,0.00
2017-07-11 01:00:00,0,42055,0,0.00,0,0,0,0,29573,50000,6415,42908,0,0,0,0,0.00,0.00,0.00,0.00
2017-07-11 01:10:00,0,40586,0,0.00,0,0,0,0,32099,50000,5793,41236,0,0,0,0,0.00,0.00,0.00,0.00
2017-07-11 01:20:00,0,38038,0,0.00,0,0,0,0,27791,50000,6858,36496,0,0,0,0,0.00,0.00,0.00,0.00
2017-07-11 01:30:00,0,44007,0,0.00,0,0,0,0,29415,50000,6050,44966,0,0,0,0,0.00,0.00,0.00,0.00
2017-07-11 01:40:00,0,41134,0,0.00,0,0,0,0,33213,50000,5964,39800,0,0,0,0,0.00,0.00,0.00,0.00
2017-07-11 01:50:00,0,47615,0,0.00,0,0,0,0,42025,50000,3091,49218,0,0,0,0,0.00,0.00,0.00,0.00
2017-07-11 02:00:00,0,48825,0,0.00,0,0,0,0,44906,50000,1651,50000,0,0,0,0,0.00,0.00,0.00,0.00
2017-07-11 02:10:00,0,46920,0,0.00,0,0,0,0,36969,50000,3954,48194,0,0,0,0,0.00,0.00,0.00,0.00
2017-07-11 02:20:00,0,34027,0,0.00,0,0,0,0,14542,49566,10224,35328,0,0,0,0,0.00,0.00,0.00,0.00
2017-07-11 02:30:00,0,47275,0,0.00,0,0,0,0,37068,50000,4269,49858,0,0,0,0,0.00,0.00,0.00,0.00
2017-07-11 02:40:00,0,44938,0,0.00,0,0,0,0,33512,50000,5701,47516,0,0,0,0,0.00,0.00,0.00,0.00
2017-07-11 02:50:00,0,46114,0,0.00,0,0,0,0,39146,50000,4643,49400,0,0,0,0,0.00,0.00,0.00,0.00
2017-07-11 03:00:00,0,44362,0,0.00,0,0,0,0,36392,50000,4985,46348,0,0,0,0,0.00,0.00,0.00,0.00
2017-07-11 03:10:00,0,40698,0,0.00,0,0,0,0,31840,50000,5473,41176,0,0,0,0,0.00,0.00,0.00,0.00
2017-07-11 03:20:00,0,42519,0,0.00,0,0,0,0,32706,50000,6895,41931,0,0,0,0,0.00,0.00,0.00,0.00
2017-07-11 03:30:00,0,45573,0,0.00,0,0,0,0,35601,50000,5449,48880,0,0,0,0,0.00,0.00,0.00,0.00
2017-07-11 03:40:00,0,45898,0,0.00,0,0,0,0,37219,50000,5067,49834,0,0,0,0,0.00,0.00,0.00,0.00
2017-07-11 03:50:00,0,42644,0,0.00,0,0,0,0,32094,50000,5439,43767,0,0,0,0,0.00,0.00,0.00,0.00
2017-07-11 04:00:00,0,47104,0,0.00,0,0,0,0,39802,50000,3462,48706,0,0,0,0,0.00,0.00,0.00,0.00
2017-07-11 04:10:00,0,44365,0,0.00,0,0,0,0,18474,50000,10700,50000,0,0,0,0,0.00,0.00,0.00,0.00
2017-07-11 04:20:00,0,44810,0,0.00,0,0,0,0,35502,50000,5086,44933,0,0,0,0,0.00,0.00,0.00,0.00
2017-07-11 04:30:00,0,44165,0,0.00,0,0,0,0,36996,50000,4768,43460,0,0,0,0,0.00,0.00,0.00,0.00
2017-07-11 04:40:00,0,48755,0,0.00,0,0,0,0,44182,50000,2027,50000,0,0,0,0,0.00,0.00,0.00,0.00
2017-07-11 04:50:00,0,48342,0,0.00,0,0,0,0,44283,50000,1965,49102,0,0,0,0,0.00,0.00,0.00,0.00
2017-07-11 05:00:00,0,47604,0,0.00,0,0,0,0,42565,50000,3138,50000,0,0,0,0,0.00,0.00,0.00,0.00
2017-07-11 05:10:00,0,48930,0,0.00,0,0,0,0,40795,50000,2730,50000,0,0,0,0,0.00,0.00,0.00,0.00
2017-07-11 05:20:00,0,47879,0,0.00,0,0,0,0,40078,50000,3196,49636,0,0,0,0,0.00,0.00,0.00,0.00
2017-07-11 05:30:00,0,46962,0,0.00,0,0,0,0,36234,50000,4154,48742,0,0,0,0,0.00,0.00,0.00,0.00
2017-07-11 05:40:00,0,40153,0,0.00,0,0,0,0,31005,48820,6759,40350,0,0,0,0,0.00,0.00,0.00,0.00
2017-07-11 05:50:00,0,48772,0,0.00,0,0,0,0,42274,50000,2347,50000,0,0,0,0,0.00,0.00,0.00,0.00
2017-07-11 06:00:00,0,48193,0,0.00,0,0,0,0,45649,50000,1428,48146,0,0,0,0,0.00,0.00,0.00,0.00
2017-07-11 06:10:00,0,47937,0,0.00,0,0,0,0,44061,50000,2206,48666,0,0,0,0,0.00,0.00,0.00,0.00
2017-07-11 06:20:00,0,49293,0,0.00,0,0,0,0,46865,50000,1128,50000,0,0,0,0,0.00,0.00,0.00,0.00
2017-07-11 06:30:00,0,49098,0,0.00,0,0,0,0,43142,50000,2087,50000,0,0,0,0,0.00,0.00,0.00,0.00
2017-07-11 06:40:00,0,48451,0,0.00,0,0,0,0,43675,50000,2038,49436,0,0,0,0,0.00,0.00,0.00,0.00
2017-07-11 06:50:00,0,49251,0,0.00,0,0,0,0,46677,50000,1214,50000,0,0,0,0,0.00,0.00,0.00,0.00
2017-07-11 07:00:00,0,48340,0,0.00,0,0,0,0,43548,50000,2453,49820,0,0,0,0,0.00,0.00,0.00,0.00
2017-07-11 07:10:00,0,49436,0,0.00,0,0,0,0,44364,50000,1691,50000,0,0,0,0,0.00,0.00,0.00,0.00
2017-07-11 07:20:00,0,49359,0,0.00,0,0,0,0,45270,50000,1409,50000,0,0,0,0,0.00,0.00,0.00,0.00
2017-07-11 07:30:00,0,45779,0,0.00,0,0,0,0,25416,50000,7633,49610,0,0,0,0,0.00,0.00,0.00,0.00
2017-07-11 07:40:00,0,49409,0,0.00,0,0,0,0,48092,50000,661,49648,0,0,0,0,0.00,0.00,0.00,0.00
2017-07-11 07:50:00,0,50000,0,0.00,0,0,0,0,50000,50000,0,50000,0,0,0,0,0.00,0.00,0.00,0.00
2017-07-11 08:00:00,0,49118,0,0.00,0,0,0,0,43157,50000,2053,50000,0,0,0,0,0.00,0.00,0.00,0.00
2017-07-11 08:10:00,0,48408,0,0.00,0,0,0,0,37933,50000,3602,50000,0,0,0,0,0.00,0.00,0.00,0.00
2017-07-11 08:20:00,0,35751,0,0.00,0,0,0,0,18345,50000,10875,38760,0,0,0,0,0.00,0.00,0.00,0.00
2017-07-11 08:30:00,0,37027,0,0.00,0,0,0,0,20334,48551,9568,39470,0,0,0,0,0.00,0.00,0.00,0.00
2017-07-11 08:40:00,0,47387,0,0.00,0,0,0,0,39281,50000,4214,50000,0,0,0,0,0.00,0.00,0.00,0.00
2017-07-11 08:50:00,0,47700,0,0.00,0,0,0,0,35182,50000,4657,50000,0,0,0,0,0.00,0.00,0.00,0.00
2017-07-11 09:00:00,0,49975,0,0.00,0,0,0,0,49750,50000,75,50000,0,0,0,0,0.00,0.00,0.00,0.00
2017-07-11 09:10:00,0,49626,0,0.00,0,0,0,0,47078,50000,884,50000,0,0,0,0,0.00,0.00,0.00,0.00
2017-07-11 09:20:00,0,40346,0,0.00,0,0,0,0,7134,50000,13668,47376,0,0,0,0,0.00,0.00,0.00,0.00
2017-07-11 09:30:00,0,41503,0,0.00,0,0,0,0,21353,50000,10846,49346,0,0,0,0,0.00,0.00,0.00,0.00
2017-07-11 09:40:00,0,47209,0,0.00,0,0,0,0,29231,50000,6359,50000,0,0,0,0,0.00,0.00,0.00,0.00
2017-07-11 09:50:00,0,49755,0,0.00,0,0,0,0,47547,50000,736,50000,0,0,0,0,0.00,0.00,0.00,0.00
2017-07-11 10:00:00,0,50000,0,0.00,0,0,0,0,50000,50000,0,50000,0,0,0,0,0.00,0.00,0.00,0.00
2017-07-11 10:10:00,0,50000,0,0.00,0,0,0,0,50000,50000,0,50000,0,0,0,0,0.00,0.00,0.00,0.00
2017-07-11 10:20:00,0,49465,0,0.00,0,0,0,0,47387,50000,812,50000,0,0,0,0,0.00,0.00,0.00,0.00
2017-07-11 10:30:00,0,46789,0,0.00,0,0,0,0,38079,50000,3692,48048,0,0,0,0,0.00,0.00,0.00,0.00
2017-07-11 10:40:00,0,44443,0,0.00,0,0,0,0,16773,50000,11377,50000,0,0,0,0,0.00,0.00,0.00,0.00
2017-07-11 10:50:00,0,48337,0,0.00,0,0,0,0,41851,50000,2734,50000,0,0,0,0,0.00,0.00,0.00,0.00
2017-07-11 11:00:00,0,49855,0,0.00,0,0,0,0,48553,50000,434,50000,0,0,0,0,0.00,0.00,0.00,0.00
2017-07-11 11:10:00,0,48156,0,0.00,0,0,0,0,42089,50000,2792,50000,0,0,0,0,0.00,0.00,0.00,0.00
2017-07-11 11:20:00,0,43006,24,0.07,0,0,0,0,13890,50000,11246,47824,0,61,30,0,0.00,0.30,0.11,0.00
2017-07-11 11:30:00,0,42992,35,0.11,0,0,0,0,15391,50000,10635,48254,0,61,29,51,0.00,0.70,0.21,0.00
2017-07-11 11:40:00,0,45603,48,0.40,0,0,0,0,34038,50000,5970,50000,0,61,16,51,0.00,1.65,0.51,0.25
2017-07-11 11:50:00,0,49869,0,0.00,0,0,0,0,48687,50000,394,50000,0,0,0,0,0.00,0.00,0.00,0.00
2017-07-11 12:00:00,0,49396,6,0.01,0,0,0,0,45887,50000,1219,50000,0,61,18,0,0.00,0.05,0.02,0.00
2017-07-11 12:10:00,0,43530,12,0.01,0,0,0,0,17646,50000,10716,50000,0,61,24,0,0.00,0.05,0.02,0.00
2017-07-11 12:20:00,0,48626,0,0.00,0,0,0,0,42417,50000,2454,50000,0,0,0,0,0.00,0.00,0.00,0.00
2017-07-11 12:30:00,0,49836,0,0.00,0,0,0,0,48362,50000,491,50000,0,0,0,0,0.00,0.00,0.00,0.00
2017-07-11 12:40:00,0,44178,0,0.00,0,0,0,0,23089,50000,9758,50000,0,0,0,0,0.00,0.00,0.00,0.00
2017-07-11 12:50:00,0,47893,0,0.00,0,0,0,0,43976,50000,1949,48071,0,0,0,0,0.00,0.00,0.00,0.00
2017-07-11 13:00:00,0,49655,0,0.00,0,0,0,0,47584,50000,756,50000,0,0,0,0,0.00,0.00,0.00,0.00
2017-07-11 13:10:00,0,45898,0,0.00,0,0,0,0,8982,50000,12305,50000,0,0,0,0,0.00,0.00,0.00,0.00
2017-07-11 13:20:00,0,42934,0,0.00,0,0,0,0,13652,50000,11068,47498,0,0,0,0,0.00,0.00,0.00,0.00
2017-07-11 13:30:00,0,49378,46,0.13,0,0,0,0,45624,50000,1367,50000,0,61,23,56,0.00,0.45,0.16,0.08
2017-07-11 13:40:00,0,49844,56,0.04,0,0,0,0,49203,50000,278,50000,51,61,5,56,0.00,0.10,0.04,0.05
2017-07-11 13:50:00,0,49823,43,0.02,0,0,0,0,48755,50000,389,50000,0,61,28,61,0.00,0.10,0.04,0.00
2017-07-11 14:00:00,0,49884,0,0.00,0,0,0,0,48835,50000,350,50000,0,0,0,0,0.00,0.00,0.00,0.00
2017-07-11 14:10:00,0,49487,0,0.00,0,0,0,0,46303,50000,1144,50000,0,0,0,0,0.00,0.00,0.00,0.00
2017-07-11 14:20:00,0,50000,0,0.00,0,0,0,0,50000,50000,0,50000,0,0,0,0,0.00,0.00,0.00,0.00
2017-07-11 14:30:00,0,49976,0,0.00,0,0,0,0,49758,50000,73,50000,0,0,0,0,0.00,0.00,0.00,0.00
2017-07-11 14:40:00,0,50000,0,0.00,0,0,0,0,50000,50000,0,50000,0,0,0,0,0.00,0.00,0.00,0.00
2017-07-11 14:50:00,0,50000,0,0.00,0,0,0,0,50000,50000,0,50000,0,0,0,0,0.00,0.00,0.00,0.00
2017-07-11 15:00:00,0,50000,0,0.00,0,0,0,0,50000,50000,0,50000,0,0,0,0,0.00,0.00,0.00,0.00
2017-07-11 15:10:00,0,50000,0,0.00,0,0,0,0,50000,50000,0,50000,0,0,0,0,0.00,0.00,0.00,0.00
2017-07-11 15:20:00,0,49795,0,0.00,0,0,0,0,47951,50000,615,50000,0,0,0,0,0.00,0.00,0.00,0.00
2017-07-11 15:30:00,0,45193,18,0.81,0,0,0,0,32890,50000,7185,50000,0,61,28,0,0.00,4.35,1.40,0.00
2017-07-11 15:40:00,0,44436,61,1.54,0,0,0,0,36813,50000,4457,44728,61,61,0,61,0.05,5.60,1.55,0.83
2017-07-11 15:50:00,0,30374,61,2.90,0,0,0,0,19006,45869,9377,28018,61,61,0,61,1.35,5.10,1.17,2.70
2017-07-11 16:00:00,0,43070,61,1.40,0,0,0,0,31219,50000,7939,47794,61,61,0,61,0.15,4.00,1.12,1.38
2017-07-11 16:10:00,0,46725,44,0.28,0,0,0,0,33564,50000,5087,49802,0,61,22,51,0.00,1.15,0.37,0.08
2017-07-11 16:20:00,0,49664,0,0.00,0,0,0,0,48204,50000,674,50000,0,0,0,0,0.00,0.00,0.00,0.00
2017-07-11 16:30:00,0,49710,0,0.00,0,0,0,0,47371,50000,784,50000,0,0,0,0,0.00,0.00,0.00,0.00
2017-07-11 16:40:00,0,46113,0,0.00,0,0,0,0,24454,50000,7874,49912,0,0,0,0,0.00,0.00,0.00,0.00
2017-07-11 16:50:00,0,50000,0,0.00,0,0,0,0,50000,50000,0,50000,0,0,0,0,0.00,0.00,0.00,0.00
2017-07-11 17:00:00,0,46062,33,0.25,0,0,0,0,33267,50000,5085,48036,0,61,27,51,0.00,0.95,0.35,0.03
2017-07-11 17:10:00,0,49472,37,0.14,0,0,0,0,46397,50000,1095,50000,0,61,24,51,0.00,1.00,0.29,0.03
2017-07-11 17:20:00,0,47805,0,0.00,0,0,0,0,44005,50000,2687,49978,0,0,0,0,0.00,0.00,0.00,0.00
2017-07-11 17:30:00,0,46156,0,0.00,0,0,0,0,33230,50000,6592,50000,0,0,0,0,0.00,0.00,0.00,0.00
2017-07-11 17:40:00,0,49613,0,0.00,0,0,0,0,48012,50000,774,50000,0,0,0,0,0.00,0.00,0.00,0.00
2017-07-11 17:50:00,0,45453,0,0.00,0,0,0,0,37731,50000,4441,46264,0,0,0,0,0.00,0.00,0.00,0.00
2017-07-11 18:00:00,0,43314,0,0.00,0,0,0,0,22729,50000,9595,49434,0,0,0,0,0.00,0.00,0.00,0.00
2017-07-11 18:10:00,0,32216,0,0.00,0,0,0,0,12444,50000,12930,33960,0,0,0,0,0.00,0.00,0.00,0.00
2017-07-11 18:20:00,0,26978,0,0.00,0,0,0,0,7930,46165,12483,29748,0,0,0,0,0.00,0.00,0.00,0.00
2017-07-11 18:30:00,0,40204,0,0.00,0,0,0,0,19841,50000,9421,42821,0,0,0,0,0.00,0.00,0.00,0.00
2017-07-11 18:40:00,0,30386,0,0.00,0,0,0,0,6688,46251,11117,34093,0,0,0,0,0.00,0.00,0.00,0.00
2017-07-11 18:50:00,0,36025,0,0.00,0,0,0,0,24434,50000,8519,37744,0,0,0,0,0.00,0.00,0.00,0.00
2017-07-11 19:00:00,0,30568,55,5.84,0,0,0,0,7949,48884,11825,31282,0,62,18,61,0.00,29.15,8.54,2.42
2017-07-11 19:10:00,0,14939,62,11.63,0,0,0,0,11738,20189,2586,14574,61,62,0,62,1.20,25.65,8.60,9.32
2017-07-11 19:20:00,0,21616,47,0.57,0,0,0,0,17309,25956,2717,22370,0,61,24,61,0.00,3.50,1.07,0.03
2017-07-11 19:30:00,0,25167,33,0.56,0,0,0,0,20907,31412,2770,24558,0,61,27,52,0.00,2.00,0.64,0.45
2017-07-11 19:40:00,0,16901,23,0.26,0,0,0,0,9695,30386,6028,17118,0,61,28,0,0.00,1.80,0.54,0.00
2017-07-11 19:50:00,0,8593,3,0.00,0,0,0,0,8002,9518,469,8502,0,10,5,0,0.00,0.00,0.00,0.00
2017-07-11 20:00:00,0,7005,10,0.00,0,0,0,0,6115,8211,588,6912,10,10,0,10,0.00,0.00,0.00,0.00
2017-07-11 20:10:00,0,5151,10,0.00,0,0,0,0,4502,5885,410,5074,10,10,0,10,0.00,0.00,0.00,0.00
2017-07-11 20:20:00,0,4386,10,0.00,0,0,0,0,4062,4696,244,4412,10,10,0,10,0.00,0.00,0.00,0.00
2017-07-11 20:30:00,0,3900,10,0.00,0,0,0,0,3672,4006,121,3959,10,10,0,10,0.00,0.00,0.00,0.00
2017-07-11 20:40:00,0,3575,10,0.00,0,0,0,0,3525,3658,40,3570,10,10,0,10,0.00,0.00,0.00,0.00
2017-07-11 20:50:00,0,3580,10,0.00,0,0,0,0,3518,3657,42,3570,10,10,0,10,0.00,0.00,0.00,0.00
2017-07-11 21:00:00,0,3504,10,0.00,0,0,0,0,3439,3556,40,3500,10,10,0,10,0.00,0.00,0.00,0.00
2017-07-11 21:10:00,0,3536,10,0.00,0,0,0,0,3475,3588,39,3536,10,10,0,10,0.00,0.00,0.00,0.00
2017-07-11 21:20:00,0,3569,10,0.00,0,0,0,0,3483,3644,44,3562,10,10,0,10,0.00,0.00,0.00,0.00
2017-07-11 21:30:00,0,3345,10,0.00,0,0,0,0,3235,3447,67,3356,10,10,0,10,0.00,0.00,0.00,0.00
2017-07-11 21:40:00,0,3168,10,0.00,0,0,0,0,3139,3218,21,3168,10,10,0,10,0.00,0.00,0.00,0.00
2017-07-11 21:50:00,0,3090,10,0.00,0,0,0,0,3037,3125,30,3094,10,10,0,10,0.00,0.00,0.00,0.00
2017-07-11 22:00:00,0,3128,10,0.00,0,0,0,0,3075,3180,33,3126,10,10,0,10,0.00,0.00,0.00,0.00
2017-07-11 22:10:00,0,3164,10,0.00,0,0,0,0,3129,3195,23,3165,10,10,0,10,0.00,0.00,0.00,0.00
2017-07-11 22:20:00,0,3200,10,0.00,0,0,0,0,3180,3244,19,3197,10,10,0,10,0.00,0.00,0.00,0.00
2017-07-11 22:30:00,0,3246,10,0.00,0,0,0,0,3189,3282,31,3248,10,10,0,10,0.00,0.00,0.00,0.00
2017-07-11 22:40:00,0,3341,10,0.00,0,0,0,0,3303,3395,26,3336,10,10,0,10,0.00,0.00,0.00,0.00
2017-07-11 22:50:00,0,3451,10,0.00,0,0,0,0,3364,3567,73,3430,10,10,0,10,0.00,0.00,0.00,0.00
2017-07-11 23:00:00,0,3609,10,0.00,0,0,0,0,3511,3719,63,3618,10,10,0,10,0.00,0.00,0.00,0.00
2017-07-11 23:10:00,0,3911,10,0.00,0,0,0,0,3727,4115,132,3930,10,10,0,10,0.00,0.00,0.00,0.00
2017-07-11 23:20:00,0,6016,10,0.00,0,0,0,0,4092,11493,2688,4282,10,10,0,10,0.00,0.00,0.00,0.00
2017-07-11 23:30:00,0,17934,8,0.00,0,0,0,0,11934,23845,4388,18891,0,10,4,10,0.00,0.00,0.00,0.00
2017-07-11 23:40:00,0,24003,0,0.00,0,0,0,0,21852,26496,1537,23546,0,0,0,0,0.00,0.00,0.00,0.00
2017-07-11 23:50:00,0,28682,0,0.00,0,0,0,0,22927,47090,7329,25158,0,0,0,0,0.00,0.00,0.00,0.00
